Regional Weather Roundup
Issued by NWS Nashville, TN

Home | Current Version | Previous Version | Text Only | Print | Product List | Glossary On
Versions: 1 2 3 4 5 6 7 8 9 10 11 12 13 14 15 16 17 18 19 20 21 22 23 24 25 26 27 28 29 30 31 32 33 34 35 36 37 38 39 40 41 42 43 44 45 46 47 48 49 50
000
ASUS44 KOHX 301015
RWROHX
MIDDLE TENNESSEE HOURLY WEATHER ROUNDUP
NATIONAL WEATHER SERVICE NASHVILLE TN
500 AM CDT SAT AUG 30 2014

NOTE: "FAIR" INDICATES FEW OR NO CLOUDS BELOW 12,000 FEET WITH
NO SIGNIFICANT WEATHER AND/OR OBSTRUCTIONS TO VISIBILITY.

* THESE REPORTS ARE NOT UNDER NWS QUALITY CONTROL AND MAY NOT
  REPORT WEATHER SUCH AS PRECIPITATION AND FOG.


TNZ005>011-023>034-057-059-062>066-078-080-301100
...NORTHERN MIDDLE TENNESSEE...

CITY           SKY/WX    TMP DP  RH WIND       PRES   REMARKS
CLARKSVILLE    PTCLDY    72  66  81 SE3       30.02S
CROSSVILLE     PTCLDY    69  60  73 CALM      30.16S
GALLATIN         N/A     69  67  93 CALM      30.07R
DICKSON        PTCLDY    72  63  73 S8        30.05R
LEBANON        PTCLDY    69  63  81 CALM      30.04S
NASHVILLE      MOCLDY    71  65  81 S3        30.05S
WEST NASHVILLE   N/A     70  70 100 N3        30.04S
PORTLAND       PTCLDY    70  63  78 S7        30.05R
SMYRNA         PTCLDY    68  65  90 S5        30.07R
SPARTA         CLEAR     64  63  94 CALM      30.10S
$$
TNZ056-058-060-061-075>077-079-093>097-301100
...SOUTHERN MIDDLE TENNESSEE...

CITY           SKY/WX    TMP DP  RH WIND       PRES   REMARKS
COLUMBIA         N/A     70  70 100 CALM      30.05S
FAYETTEVILLE   CLEAR     72  63  73 S3        30.09R
LEWISBURG      PTCLDY    67  63  87 CALM      30.06S
MCMINNVILLE    CLEAR     64  64 100 CALM      30.10S
SHELBYVILLE    CLEAR     70  66  88 SE6       30.09R
TULLAHOMA      CLEAR     66  63  88 CALM      30.11R
WINCHESTER     CLEAR     70  64  83 CALM      30.10S
$$


...KEY TO REMARKS...
VSB - VISIBILITY IN MILES
WCI - WIND CHILL INDEX
HX  - HEAT INDEX



USA.gov is the U.S. government's official web portal to all federal, state and local government web resources and services.